Location: New Plymouth
(39.0670°S, 174.0830°E)
Time: 00:30:40
(UTC+13:00)

ISS - Pass Details

Date: 26 January 2019
Orbit: 403 x 411 km, 51.6° (Epoch: 22 February)

Event Time Altitude Azimuth Distance (km) Brightness Sun altitude
Exits shadow 05:35:04 - 358° (N) 2,175 -0.5 -9.5°
Reaches altitude 10° 05:37:40 10° 27° (NNE) 1,480 -1.0 -9.1°
Maximum altitude 05:39:04 12° 52° (NE) 1,358 -0.9 -8.9°
Drops below altitude 10° 05:40:29 10° 77° (ENE) 1,487 -0.3 -8.7°
Sets 05:43:35 0° 108° (ESE) 2,356 1.9 -8.1°
